Overview Statistics Trail Chart Weather Telemetry Raw packets
 

This is the latest recevied weather packets stored in our database for station/object W4UWO. If no packets are shown the sender has not sent any weather packets the latest 10 day(s).

<< 92 93 94 95 96 97 98 >>
Time Temp. Humidity Pressure Rain* Wind** Luminosity Snow
1787937829 31.11° C 43% 1019.7 hPa 0 mm - 863 W/m² -
1787937525 31.11° C 45% 1019.9 hPa 0 mm - 858 W/m² -
1787937222 31.11° C 45% 1020 hPa 0 mm - 860 W/m² -
1787936916 31.11° C 45% 1019.9 hPa 0 mm - 856 W/m² -
1787936615 31.11° C 46% 1020 hPa 0 mm - 894 W/m² -
1787936314 30.56° C 47% 1019.8 hPa 0 mm - 878 W/m² -
1787936010 30.56° C 46% 1019.9 hPa 0 mm - 851 W/m² -
1787935706 30.56° C 47% 1020 hPa 0 mm - 835 W/m² -
1787935402 30.56° C 46% 1020 hPa 0 mm - 843 W/m² -
1787935098 30° C 50% 1020 hPa 0 mm - 867 W/m² -
1787934793 30° C 50% 1020.1 hPa 0 mm - 220 W/m² -
1787934492 30° C 51% 1020.1 hPa 0 mm - 910 W/m² -
1787934187 29.44° C 52% 1020 hPa 0 mm - 859 W/m² -
1787933894 30.56° C 51% 1020.2 hPa 0 mm - 195 W/m² -
1787933580 30° C 52% 1020 hPa 0 mm - 844 W/m² -
1787933275 30° C 52% 1020.2 hPa 0 mm - 189 W/m² -
1787932974 30.56° C 54% 1020.2 hPa 0 mm - 807 W/m² -
1787932674 30° C 53% 1020.2 hPa 0 mm - 254 W/m² -
1787932374 30° C 53% 1020.3 hPa 0 mm - 729 W/m² -
1787932074 30° C 51% 1020.2 hPa 0 mm - 477 W/m² -
1787931773 30° C 56% 1020.1 hPa 0 mm - 698 W/m² -
1787931468 30° C 56% 1020.3 hPa 0 mm - 680 W/m² -
1787931162 30° C 56% 1020.1 hPa 0 mm - 662 W/m² -
1787930862 29.44° C 58% 1020.1 hPa 0 mm - 652 W/m² -
1787930561 30° C 58% 1020 hPa 0 mm - 638 W/m² -

* Rain latest hour (hover to see other rain measurements)
** Current wind speed in m/s (hover to see current wind gust speed)